Terminal Aerodrome Forecast
Issued by NWS Upton, NY

Current Version | Previous Version | Text Only | Print | Product List | Glossary On
Versions: 1 2 3 4 5 6 7 8 9 10 11 12 13 14 15 16 17 18 19 20 21 22 23 24 25 26 27 28 29 30
000 FTUS41 KOKX 240500 TAFISP TAF KISP 240536Z 2406/2506 34015G21KT P6SM VCSH SCT025 OVC035 TEMPO 2406/2408 BKN025 FM241000 33011KT P6SM SCT025 BKN045 FM241400 33014G21KT P6SM SCT025 BKN045 FM242200 32010KT P6SM SCT045 FM250000 32008KT P6SM SCT250=

USA.gov is the U.S. government's official web portal to all federal, state and local government web resources and services.